Вернуться в каталог

COSMOS 2251 DEB

АктивенVLEO
NORAD 34451·DEBRIS·🇷🇺 Russia

Запущен Jun 16, 1993 с Plesetsk Cosmodrome

Loading…

Ближайшие Пролёты (ближайшие 24 часа)

TLE

СвежийSource: Space-Track

Эпоха: Sep 14, 2026, 09:28 UTC

1 34451U 93036SU  26257.39482145  .00037099  00000-0  17973-2 0  9993
2 34451  74.0381 241.5274 0017715 209.4013 150.6189 15.18235323927884

Отслеживайте COSMOS 2251 DEB в реальном времени с AllMySat

Download on the App Store